Regional Weather Roundup
Issued by NWS

Home | Current Version | Previous Version | Text Only | Print | Product List | Glossary Off
Versions: 1 2 3 4 5 6 7 8 9 10 11 12 13 14 15 16 17 18 19 20 21 22 23 24 25 26 27 28 29 30 31 32 33 34 35 36 37 38 39 40 41 42 43 44 45 46 47 48 49 50

600
ASUS43 KBIS 122210
RWRND

NORTH DAKOTA REGIONAL WEATHER ROUNDUP
NATIONAL WEATHER SERVICE BISMARCK ND
400 PM CST TUE DEC 12 2017

NOTE: "FAIR" INDICATES FEW OR NO CLOUDS BELOW 12,000 FEET WITH NO
SIGNIFICANT WEATHER AND/OR OBSTRUCTIONS TO VISIBILITY.


NDZ001>003-009>011-017-122300-
NORTHWEST NORTH DAKOTA

CITY           SKY/WX    TMP DP  RH WIND       PRES   REMARKS
WILLISTON      CLOUDY    51  16  24 SW12      29.75F
MINOT          CLOUDY    49  23  36 SW14      29.66F
MINOT AFB      CLOUDY    47  25  43 W12       29.65F
$$

NDZ018>021-031>035-040>046-122300-
SOUTHWEST NORTH DAKOTA

CITY           SKY/WX    TMP DP  RH WIND       PRES   REMARKS
BISMARCK       CLEAR     53  26  35 W9        29.77F
DICKINSON      CLEAR     53  24  32 W17       29.78F
GARRISON         N/A     48  24  39 W8        29.72F
HETTINGER ARPT CLEAR     55  18  23 W20       29.86F
$$

NDZ004>008-012>016-024-026-027-054-122300-
NORTHEAST NORTH DAKOTA

CITY           SKY/WX    TMP DP  RH WIND       PRES   REMARKS
GRAND FORKS    PTCLDY    34  30  85 S9        29.69F
GRND FRKS AFB  CLEAR     37  29  74 SW8       29.67F
DEVILS LAKE    CLEAR     39  29  67 SW12      29.66F
$$

NDZ022-023-025-028>030-036>039-047>053-122300-
SOUTHEAST NORTH DAKOTA

CITY           SKY/WX    TMP DP  RH WIND       PRES   REMARKS
FARGO          CLEAR     37  31  78 S9        29.75F
JAMESTOWN      CLEAR     41  29  62 W13       29.74F
$$





USA.gov is the U.S. government's official web portal to all federal, state and local government web resources and services.